Location: Casteau
(50.5142°N, 4.0161°E)
Time: 06:07:42
(UTC+00:00)

Vanguard 3 - All Passes

Search period start: 31 July 2021 00:00
Search period end: 10 August 2021 00:00
Orbit: 508 x 3261 km, 33.4° (Epoch: 30 July)

Date Brightness Start Highest point End Pass type
(mag) Time Alt. Az. Time Alt. Az. Time Alt. Az.
31 Jul - 01:09:04 10° WSW 01:16:22 14° SW 01:22:53 10° SSW visible
31 Jul - 15:03:44 10° SSE 15:09:30 13° SE 15:16:04 10° ESE daylight
31 Jul - 17:08:05 10° SSW 17:20:50 33° SSE 17:36:48 10° E daylight
31 Jul - 19:18:35 10° WSW 19:34:31 45° S 19:52:12 10° ESE daylight
31 Jul - 21:32:01 10° WSW 21:48:58 40° SSW 22:04:46 10° SE visible
31 Jul - 23:48:46 10° W 00:01:54 23° SW 00:13:14 10° S visible
01 Aug - 15:55:49 10° S 16:05:56 24° SE 16:18:51 10° E daylight
01 Aug - 18:04:20 10° SW 18:18:30 41° SSE 18:35:58 10° ESE daylight
01 Aug - 20:16:20 10° WSW 20:32:49 44° S 20:50:04 10° SE visible
01 Aug - 22:31:04 10° W 22:46:44 32° SSW 23:00:54 10° SSE visible
02 Aug - 00:52:33 10° WSW 00:58:29 12° SW 01:04:01 10° SSW visible
02 Aug - 14:45:49 10° SSE 14:51:48 14° SE 14:58:51 10° ESE daylight
02 Aug - 16:50:57 10° SSW 17:03:01 34° SSE 17:18:56 10° E daylight
02 Aug - 19:01:26 10° WSW 19:16:36 44° S 19:34:29 10° ESE daylight
02 Aug - 21:14:39 10° WSW 21:30:58 38° SSW 21:47:10 10° SE visible
02 Aug - 23:31:26 10° W 23:43:56 21° SW 23:55:16 10° S visible
03 Aug - 15:38:40 10° S 15:48:15 25° SE 16:01:00 10° E daylight
03 Aug - 17:47:19 10° SW 18:00:40 41° SSE 18:18:05 10° ESE daylight
03 Aug - 19:59:09 10° WSW 20:14:52 43° S 20:32:21 10° SE visible
03 Aug - 22:13:44 10° W 22:28:43 30° SSW 22:43:05 10° SSE visible
04 Aug - 00:37:21 10° WSW 00:40:34 11° SW 00:43:42 10° SW visible
04 Aug - 14:28:20 10° SSE 14:34:13 15° SE 14:41:23 10° ESE daylight
04 Aug - 16:34:01 10° SSW 16:45:19 34° SSE 17:00:56 10° E daylight
04 Aug - 18:44:27 10° WSW 18:58:45 44° S 19:16:36 10° ESE daylight
04 Aug - 20:57:27 10° W 21:12:59 37° SSW 21:29:21 10° SE visible
04 Aug - 23:14:23 10° W 23:25:57 19° SW 23:36:56 10° S visible
05 Aug - 15:21:42 10° SSW 15:30:40 25° SE 15:43:02 10° E daylight
05 Aug - 17:30:28 10° SW 17:42:57 41° SSE 18:00:03 10° ESE daylight
05 Aug - 19:42:08 10° WSW 19:56:58 41° S 20:14:26 10° SE visible
05 Aug - 21:56:35 10° W 22:10:44 27° SSW 22:25:00 10° SSE visible
06 Aug - 14:11:07 10° SSE 14:16:45 15° SE 14:23:47 10° ESE daylight
06 Aug - 16:17:15 10° SW 16:27:44 34° SSE 16:42:51 10° ESE daylight
06 Aug - 18:27:37 10° WSW 18:40:58 42° S 18:58:34 10° ESE daylight
06 Aug - 20:40:26 10° W 20:55:02 34° SSW 21:11:17 10° SSE visible
06 Aug - 22:57:42 10° WSW 23:07:59 17° SW 23:18:08 10° SSW visible
07 Aug - 15:04:55 10° SSW 15:13:13 25° SE 15:25:01 10° E daylight
07 Aug - 17:13:46 10° SW 17:25:21 40° S 17:41:56 10° ESE daylight
07 Aug - 19:25:17 10° WSW 19:39:08 39° SSW 19:56:20 10° SE visible
07 Aug - 21:39:42 10° W 21:52:46 25° SW 22:06:36 10° S visible
08 Aug - 13:54:09 10° SSE 13:59:25 15° SE 14:06:05 10° ESE daylight
08 Aug - 16:00:37 10° SW 16:10:18 34° SSE 16:24:42 10° ESE daylight
08 Aug - 18:10:54 10° WSW 18:23:19 41° S 18:40:23 10° ESE daylight
08 Aug - 20:23:36 10° WSW 20:37:10 32° SSW 20:52:58 10° SSE visible
08 Aug - 22:41:34 10° WSW 22:50:03 15° SW 22:58:41 10° SSW visible
09 Aug - 14:48:17 10° SSW 14:55:55 25° SSE 15:06:58 10° ESE daylight
09 Aug - 16:57:11 10° SW 17:07:52 39° S 17:23:42 10° ESE daylight
09 Aug - 19:08:35 10° WSW 19:21:24 36° SSW 19:38:01 10° SE daylight
09 Aug - 21:23:05 10° WSW 21:34:52 22° SW 21:47:50 10° S visible
